Location: Slanting_Bridge
(35.6330°N, 80.9830°W)
Time: 09:00:41
(UTC-04:00)

Amateur Radio Satellites - All Passes

Search period start: 28 August 2015 08:30
Search period end: 29 August 2015 08:30
Location: Slanting_Bridge, 35.6330°N, 80.9830°W

Satellite Date Start Highest point End Downlink Frequencies (MHz)
Time Altitude Azimuth
PRISM 28 Aug 08:34:00 08:37:40 30° 263° (W) 08:41:16 437.425
PHONESAT 2.4 28 Aug 08:37:44 08:41:09 77° 342° (NNW) 08:44:33 2401.200-2431.200
CUTE 1.7 + AOD 2 28 Aug 08:49:58 08:51:11 11° 90° (E) 08:52:40 437.475
YUBILEINY 28 Aug 08:54:39 09:02:59 45° 76° (ENE) 09:11:21 435.215
GOMX 1 28 Aug 08:56:34 09:01:46 46° 98° (E) 09:07:02 467.674
CANX-2 28 Aug 09:01:50 09:04:45 19° 93° (E) 09:07:47 2200.000
CINEMA 3 28 Aug 09:11:18 09:14:02 15° 90° (E) 09:16:59 145.822/145.860
CUTE-I 28 Aug 09:12:07 09:15:22 16° 295° (WNW) 09:18:24 437.470
HO-68 28 Aug 09:13:45 09:20:07 34° 96° (E) 09:26:33 435.675
VERMONT LUNAR 28 Aug 09:15:17 09:18:04 34° 9° (N) 09:20:51 437.305
ISS 28 Aug 09:27:26 09:28:34 12° 128° (SE) 09:29:49 145.825
SEEDS 28 Aug 09:30:19 09:33:55 28° 96° (E) 09:37:32 437.485
DOVE 4 28 Aug 09:30:35 09:35:51 60° 99° (E) 09:41:05 437.250
Cosmos 2491 28 Aug 09:36:44 09:44:51 47° 90° (E) 09:53:05 435.465 / 435.565
BRITE-PL 28 Aug 09:44:32 09:49:34 39° 287° (WNW) 09:54:44 437.365/2234.400
UWE-3 28 Aug 09:47:17 09:47:48 10° 88° (E) 09:48:40 435.000/436.395/437.385
UNISAT 6 28 Aug 09:50:03 09:50:16 10° 65° (ENE) 09:50:48 437.425
COMPASS 1 28 Aug 09:58:54 10:02:56 48° 99° (E) 10:06:56 437.405
AIST 1 28 Aug 10:03:08 10:06:51 28° 283° (WNW) 10:10:31
AAUSAT CUBESAT 2 28 Aug 10:12:46 10:16:52 60° 100° (E) 10:20:55 437.432
PHONESAT 2.4 28 Aug 10:16:08 10:19:17 35° 356° (N) 10:22:28 2401.200-2431.200
TIGRISAT 28 Aug 10:17:01 10:20:20 20° 69° (ENE) 10:23:49 435.000
CUTE 1.7 + AOD 2 28 Aug 10:23:21 10:27:27 48° 285° (WNW) 10:31:29 437.475
ANTELSAT 28 Aug 10:31:34 10:35:34 30° 71° (ENE) 10:39:42 437.575/2403.000
GOMX 1 28 Aug 10:35:29 10:39:35 22° 291° (WNW) 10:43:34 467.674
CANX-2 28 Aug 10:37:01 10:40:45 30° 288° (WNW) 10:44:23 2200.000
QB50P1 28 Aug 10:45:41 10:47:39 13° 68° (ENE) 10:49:51 145.935-145.965
SO-50 28 Aug 10:46:40 10:50:04 19° 46° (NE) 10:53:34 436.795
CINEMA 3 28 Aug 10:46:42 10:51:36 52° 286° (WNW) 10:56:20 145.822/145.860
Oscar 11 28 Aug 10:48:37 10:52:56 66° 101° (E) 10:57:12 145.826/435.025
AUBIESAT-1 28 Aug 10:48:45 10:53:24 62° 71° (ENE) 10:58:06 437.475
M-CUBED/EXP-1 PRIME 28 Aug 10:49:53 10:54:38 75° 71° (ENE) 10:59:26 437.505
VERMONT LUNAR 28 Aug 10:51:41 10:54:39 67° 206° (SSW) 10:57:38 437.305
YUBILEINY 28 Aug 10:51:51 10:59:39 35° 273° (W) 11:07:12 435.215
DANDE 28 Aug 10:59:01 11:02:44 15° 66° (ENE) 11:07:15 436.750
CUSAT 1 28 Aug 11:00:01 11:05:38 23° 69° (ENE) 11:11:56 437.405
HO-68 28 Aug 11:01:15 11:07:54 41° 292° (WNW) 11:14:28 435.675
ISS 28 Aug 11:01:28 11:04:39 52° 321° (NW) 11:07:50 145.825
CUBEBUG 2 28 Aug 11:04:35 11:09:19 72° 283° (WNW) 11:13:52 437.445
DELFI C3 28 Aug 11:06:07 11:10:06 69° 101° (E) 11:14:03 145.870
HUMSAT D 28 Aug 11:06:22 11:09:43 23° 94° (E) 11:13:07 437.325/437.525
SEEDS 28 Aug 11:06:27 11:09:33 20° 290° (WNW) 11:12:31 437.485
DOVE 4 28 Aug 11:09:52 11:13:08 16° 293° (WNW) 11:16:08 437.250
Cosmos 2504 28 Aug 11:12:46 11:20:51 46° 76° (ENE) 11:28:34 435.465 / 435.565
UWE-3 28 Aug 11:20:16 11:24:51 62° 285° (WNW) 11:29:17 435.000/436.395/437.385
UNISAT 6 28 Aug 11:21:50 11:26:27 75° 259° (WSW) 11:31:11 437.425
ZACube-1 28 Aug 11:22:37 11:27:10 78° 283° (WNW) 11:31:34 437.345
FUNcube-1 28 Aug 11:29:58 11:34:28 66° 284° (WNW) 11:38:49 145.935
Cosmos 2491 28 Aug 11:34:14 11:41:59 33° 288° (WNW) 11:49:32 435.465 / 435.565
COMPASS 1 28 Aug 11:36:32 11:38:12 12° 292° (WNW) 11:39:40 437.405
POLYITAN 1 28 Aug 11:42:33 11:46:45 65° 76° (ENE) 11:51:00 437.675
POPSAT HIP 1 28 Aug 11:46:48 11:51:00 72° 76° (ENE) 11:55:15 437.405
ESTCUBE 1 28 Aug 11:48:19 11:51:19 18° 93° (E) 11:54:29 437.505/2401.250
DUCHIFAT 1 28 Aug 11:50:58 11:55:10 77° 77° (ENE) 11:59:25 145.980
TIGRISAT 28 Aug 11:52:35 11:56:51 35° 263° (W) 12:01:08 435.000
PHONESAT 2.4 28 Aug 11:54:15 11:57:34 47° 13° (NNE) 12:00:52 2401.200-2431.200
QB50P2 28 Aug 12:02:41 12:06:55 70° 259° (W) 12:11:11 145.880/145.840
NANOSAT C BR1 28 Aug 12:07:00 12:11:11 65° 259° (W) 12:15:25 145.865
ANTELSAT 28 Aug 12:08:35 12:12:21 23° 266° (W) 12:16:03 437.575/2403.000
DX 1 28 Aug 12:09:50 12:14:14 73° 102° (ESE) 12:18:36 434.975-435.025
50 SAT 28 Aug 12:13:36 12:17:27 61° 100° (E) 12:21:15 437.505
AISAT 28 Aug 12:15:32 12:19:55 53° 100° (E) 12:24:18 437.250
BUGSAT 1 28 Aug 12:16:37 12:20:39 85° 257° (WSW) 12:24:45 437.445
QB50P1 28 Aug 12:19:06 12:23:09 44° 261° (W) 12:27:15 145.935-145.965
SO-50 28 Aug 12:26:12 12:31:00 53° 244° (WSW) 12:35:38 436.795
AUBIESAT-1 28 Aug 12:26:22 12:28:29 12° 266° (W) 12:30:20 437.475
PCSat 28 Aug 12:28:36 12:33:49 46° 58° (ENE) 12:39:01 145.827
CUBEBUG 1 28 Aug 12:28:47 12:32:59 42° 99° (E) 12:37:12 437.445
UKube-1 28 Aug 12:28:55 12:33:15 74° 285° (WNW) 12:37:34 .
M-CUBED/EXP-1 PRIME 28 Aug 12:29:16 12:29:56 10° 267° (W) 12:30:13 437.505
VERMONT LUNAR 28 Aug 12:30:27 12:30:46 10° 217° (SW) 12:30:58 437.305
DANDE 28 Aug 12:39:17 12:46:42 81° 81° (E) 12:55:14 436.750
CUSAT 1 28 Aug 12:41:06 12:48:44 73° 264° (W) 12:56:57 437.405
SPROUT 28 Aug 12:41:10 12:43:52 17° 92° (E) 12:46:43 437.525
HUMSAT D 28 Aug 12:41:54 12:45:24 24° 289° (WNW) 12:48:45 437.325/437.525
VELOX 1 28 Aug 12:44:55 12:49:22 73° 284° (WNW) 12:53:49 145.980
Oscar 19 28 Aug 12:47:22 12:49:50 14° 65° (ENE) 12:52:34 437.125/150
Cosmos 2504 28 Aug 13:05:24 13:12:49 33° 274° (W) 13:19:41 435.465 / 435.565
ESTCUBE 1 28 Aug 13:24:13 13:28:19 35° 288° (WNW) 13:32:22 437.505/2401.250
PHONESAT 2.4 28 Aug 13:32:11 13:35:27 43° 209° (SSW) 13:38:43 2401.200-2431.200
ITAMSAT 1 28 Aug 13:39:24 13:40:04 10° 63° (ENE) 13:41:05 435.822/435.867
GONETS M04 28 Aug 13:42:28 13:48:16 20° 65° (ENE) 13:54:34
AISAT 28 Aug 13:53:57 13:56:04 13° 293° (WNW) 13:57:59 437.250
TISAT 1 28 Aug 13:59:43 14:04:01 80° 103° (ESE) 14:08:16 437.305
ITUPSAT 1 28 Aug 14:01:51 14:03:06 11° 90° (E) 14:04:40 437.325
CUBEBUG 1 28 Aug 14:06:23 14:09:01 15° 292° (WNW) 14:11:29 437.445
PCSat 28 Aug 14:12:55 14:16:55 21° 253° (WSW) 14:20:45 145.827
JAS-2 28 Aug 14:12:55 14:18:06 21° 62° (ENE) 14:23:45 435.910
SPROUT 28 Aug 14:16:06 14:20:05 35° 287° (WNW) 14:24:01 437.525
Oscar 19 28 Aug 14:23:36 14:28:42 64° 259° (W) 14:33:52 437.125/150
DANDE 28 Aug 14:24:16 14:29:28 19° 272° (W) 14:34:37 436.750
CUSAT 1 28 Aug 14:27:27 14:30:34 12° 276° (W) 14:33:04 437.405
Gurwin Techsat 1B 28 Aug 14:33:19 14:38:21 46° 72° (ENE) 14:43:25 435.225
BEESAT 28 Aug 14:35:18 14:39:21 28° 96° (E) 14:43:29 436.000
AO-7 28 Aug 14:35:25 14:39:47 16° 55° (NE) 14:44:37 29.400- 29.500
SWISSCUBE 28 Aug 15:00:10 15:04:53 59° 101° (E) 15:09:34 437.505
ITAMSAT 1 28 Aug 15:13:46 15:18:57 86° 257° (WSW) 15:24:10 435.822/435.867
Cosmos 2499 28 Aug 15:18:46 15:24:48 21° 65° (ENE) 15:30:59 435.465 / 435.565
HORYU 2 28 Aug 15:20:58 15:22:21 12° 66° (ENE) 15:24:00 437.375
BEESAT 3 28 Aug 15:35:49 15:38:42 20° 112° (ESE) 15:41:45 437.485
ITUPSAT 1 28 Aug 15:36:46 15:41:29 62° 285° (WNW) 15:46:10 437.325
GONETS M04 28 Aug 15:37:25 15:46:13 77° 265° (W) 15:55:01
BEESAT 2 28 Aug 15:42:22 15:45:00 17° 111° (ESE) 15:47:47 435.950
RS-15 28 Aug 15:48:29 15:56:08 24° 104° (ESE) 16:04:29 29.354- 29.394
JAS-2 28 Aug 15:54:53 16:02:20 78° 258° (WSW) 16:10:15 435.910
JUGNU 28 Aug 16:08:19 16:11:43 16° 175° (S) 16:15:07 437.505
BEESAT 28 Aug 16:13:11 16:17:07 25° 290° (WNW) 16:20:56 436.000
Gurwin Techsat 1B 28 Aug 16:14:50 16:18:36 19° 268° (W) 16:22:10 435.225
AO-7 28 Aug 16:23:09 16:31:30 80° 71° (ENE) 16:39:52 29.400- 29.500
MOZHAYETS 4 28 Aug 16:35:37 16:36:38 11° 89° (E) 16:37:57
STARS 28 Aug 16:39:09 16:43:33 59° 100° (E) 16:47:55 437.465
SWISSCUBE 28 Aug 16:40:02 16:42:17 13° 294° (WNW) 16:44:17 437.505
KKS-1 28 Aug 16:48:07 16:52:35 62° 284° (WNW) 16:56:59 437.445
HORYU 2 28 Aug 16:54:05 16:58:31 61° 259° (W) 17:02:59 437.375
Cosmos 2499 28 Aug 17:10:20 17:19:02 73° 266° (W) 17:27:05 435.465 / 435.565
SRMSAT 28 Aug 17:11:24 17:14:16 14° 171° (S) 17:17:12 437.500
BEESAT 3 28 Aug 17:12:50 17:16:28 30° 306° (NW) 17:20:05 437.485
BEESAT 2 28 Aug 17:19:01 17:22:48 35° 305° (NW) 17:26:35 435.950
AIST 2 28 Aug 17:28:54 17:33:00 53° 116° (ESE) 17:37:09 435.215
ISS 28 Aug 17:31:18 17:34:25 42° 37° (NE) 17:37:31 145.825
GONETS M04 28 Aug 17:38:45 17:41:52 12° 281° (W) 17:44:09
JAS-2 28 Aug 17:45:47 17:48:45 12° 277° (W) 17:51:05 435.910
RS-15 28 Aug 17:56:32 18:07:27 78° 302° (WNW) 18:18:48 29.354- 29.394
JUGNU 28 Aug 17:56:37 17:59:59 16° 185° (S) 18:03:19 437.505
Cubesat XI-IV 28 Aug 18:04:20 18:08:40 26° 69° (ENE) 18:13:05 437.490
MOZHAYETS 4 28 Aug 18:09:49 18:14:19 58° 285° (WNW) 18:18:46
STARS 28 Aug 18:17:52 18:19:32 12° 294° (WNW) 18:20:57 437.465
CUBESAT XI-V 28 Aug 18:18:20 18:19:59 12° 90° (E) 18:21:56 437.345
AO-7 28 Aug 18:19:37 18:25:15 18° 269° (W) 18:30:23 29.400- 29.500
CUTE-I 28 Aug 18:49:22 18:54:39 72° 75° (ENE) 18:59:58 437.470
SRMSAT 28 Aug 18:59:03 19:02:42 17° 181° (S) 19:06:22 437.500
ISS 28 Aug 19:08:39 19:10:34 14° 231° (SW) 19:12:22 145.825
Cosmos 2499 28 Aug 19:08:41 19:10:46 11° 283° (WNW) 19:12:02 435.465 / 435.565
AIST 2 28 Aug 19:09:25 19:11:56 15° 313° (NW) 19:14:18 435.215
BRITE-PL 28 Aug 19:16:21 19:18:53 16° 67° (ENE) 19:21:42 437.365/2234.400
HO-68 28 Aug 19:40:55 19:45:34 20° 61° (ENE) 19:50:31 435.675
Cubesat XI-IV 28 Aug 19:43:48 19:48:38 34° 263° (W) 19:53:25 437.490
Cosmos 2491 28 Aug 19:51:48 19:57:27 19° 65° (ENE) 20:03:34 435.465 / 435.565
STRAND 1 28 Aug 19:52:11 19:56:44 33° 97° (E) 20:01:20 437.568
CUBESAT XI-V 28 Aug 19:53:17 19:57:49 55° 285° (WNW) 20:02:21 437.345
CANX-2 28 Aug 19:54:45 19:54:57 10° 67° (ENE) 19:55:26 2200.000
O/OREOS (USA 219) 28 Aug 20:02:11 20:06:33 52° 107° (ESE) 20:11:00 437.305
GOMX 1 28 Aug 20:02:34 20:06:22 30° 71° (ENE) 20:10:26 467.674
AIST 1 28 Aug 20:12:30 20:16:40 47° 80° (E) 20:20:53
RS-15 28 Aug 20:13:44 20:22:15 23° 329° (NNW) 20:30:42 29.354- 29.394
PRISM 28 Aug 20:18:31 20:22:24 42° 99° (E) 20:26:19 437.425
SEEDS 28 Aug 20:20:39 20:22:57 15° 69° (ENE) 20:25:25 437.485
CUTE-I 28 Aug 20:33:24 20:35:22 11° 271° (W) 20:36:55 437.470
DOVE 4 28 Aug 20:33:31 20:37:38 39° 73° (ENE) 20:42:05 437.250
COMPASS 1 28 Aug 20:47:35 20:50:53 23° 71° (ENE) 20:54:16 437.405
SRMSAT 28 Aug 20:48:29 20:51:09 13° 190° (S) 20:53:44 437.500
BRITE-PL 28 Aug 20:53:11 20:57:07 37° 263° (W) 21:01:16 437.365/2234.400
AAUSAT CUBESAT 2 28 Aug 21:00:47 21:04:19 27° 72° (ENE) 21:07:54 437.432
CUTE 1.7 + AOD 2 28 Aug 21:12:40 21:16:57 79° 77° (ENE) 21:21:16 437.475
HO-68 28 Aug 21:25:30 21:32:39 74° 256° (WSW) 21:39:51 435.675
CANX-2 28 Aug 21:26:09 21:30:24 63° 260° (W) 21:34:40 2200.000
STRAND 1 28 Aug 21:31:38 21:35:49 25° 291° (WNW) 21:39:52 437.568
Oscar 11 28 Aug 21:40:31 21:44:27 35° 73° (ENE) 21:48:26 145.826/435.025
GOMX 1 28 Aug 21:41:16 21:44:36 20° 268° (W) 21:47:57 467.674
O/OREOS (USA 219) 28 Aug 21:43:55 21:46:23 14° 304° (NW) 21:48:41 437.305
CINEMA 3 28 Aug 21:44:55 21:49:28 79° 259° (W) 21:54:16 145.822/145.860
Cosmos 2491 28 Aug 21:46:41 21:55:26 79° 265° (W) 22:04:12 435.465 / 435.565
DELFI C3 28 Aug 21:50:28 21:53:54 27° 72° (ENE) 21:57:22 145.870
YUBILEINY 28 Aug 21:51:23 21:59:49 57° 92° (E) 22:08:25 435.215
AIST 1 28 Aug 21:52:30 21:53:56 11° 273° (W) 21:55:07
SEEDS 28 Aug 21:54:23 21:58:25 40° 262° (W) 22:02:26 437.485
PRISM 28 Aug 21:55:26 21:57:30 13° 292° (WNW) 21:59:24 437.425
HUMSAT D 28 Aug 21:56:43 21:58:26 13° 67° (ENE) 22:00:23 437.325/437.525
CUBEBUG 2 28 Aug 21:59:17 22:03:47 66° 76° (ENE) 22:08:28 437.445
DOVE 4 28 Aug 22:12:46 22:15:41 16° 270° (W) 22:18:32 437.250
UWE-3 28 Aug 22:13:47 22:18:18 74° 77° (ENE) 22:22:57 435.000/436.395/437.385
ZACube-1 28 Aug 22:15:07 22:19:30 56° 75° (ENE) 22:24:01 437.345
FUNcube-1 28 Aug 22:22:07 22:26:33 66° 76° (ENE) 22:31:07 145.935
COMPASS 1 28 Aug 22:22:58 22:26:28 24° 265° (W) 22:29:53 437.405
RS-15 28 Aug 22:35:58 22:40:54 13° 4° (N) 22:46:01 29.354- 29.394
AAUSAT CUBESAT 2 28 Aug 22:36:44 22:39:55 20° 266° (W) 22:42:59 437.432
ESTCUBE 1 28 Aug 22:46:36 22:48:22 13° 67° (ENE) 22:50:22 437.505/2401.250
50 SAT 28 Aug 22:54:34 22:57:39 22° 71° (ENE) 23:00:48 437.505
DX 1 28 Aug 23:02:33 23:06:36 42° 73° (ENE) 23:10:43 434.975-435.025
AISAT 28 Aug 23:10:34 23:14:27 32° 72° (ENE) 23:18:25 437.250
UNISAT 6 28 Aug 23:17:23 23:21:20 28° 95° (E) 23:25:14 437.425
Oscar 11 28 Aug 23:17:49 23:20:46 17° 268° (W) 23:23:33 145.826/435.025
UKube-1 28 Aug 23:20:32 23:24:47 62° 75° (ENE) 23:29:03 .
CUBEBUG 1 28 Aug 23:22:33 23:26:01 25° 71° (ENE) 23:29:34 437.445
DELFI C3 28 Aug 23:26:00 23:28:58 19° 267° (W) 23:31:48 145.870
HUMSAT D 28 Aug 23:29:34 23:33:44 51° 260° (W) 23:37:59 437.325/437.525
POLYITAN 1 28 Aug 23:32:31 23:34:35 14° 91° (E) 23:36:53 437.675
POPSAT HIP 1 28 Aug 23:36:17 23:38:38 15° 92° (E) 23:41:11 437.405
Cosmos 2504 28 Aug 23:39:04 23:46:02 36° 87° (E) 23:53:33 435.465 / 435.565
VELOX 1 28 Aug 23:39:19 23:43:39 68° 76° (ENE) 23:48:03 145.980
DUCHIFAT 1 28 Aug 23:39:49 23:42:19 16° 92° (E) 23:45:00 145.980
TIGRISAT 28 Aug 23:46:59 23:51:32 61° 100° (E) 23:55:58 435.000
Cosmos 2491 28 Aug 23:47:52 23:51:08 12° 281° (W) 23:53:36 435.465 / 435.565
YUBILEINY 28 Aug 23:49:52 23:57:13 28° 291° (WNW) 00:04:20 435.215
QB50P2 28 Aug 23:51:27 23:54:53 23° 95° (E) 23:58:23 145.880/145.840
ZACube-1 28 Aug 23:54:40 23:56:17 11° 271° (W) 23:57:37 437.345
NANOSAT C BR1 28 Aug 23:55:13 23:58:43 25° 95° (E) 00:02:17 145.865
ANTELSAT 29 Aug 00:02:32 00:07:09 85° 283° (WNW) 00:11:37 437.575/2403.000
BUGSAT 1 29 Aug 00:02:34 00:05:23 18° 93° (E) 00:08:21 437.445
QB50P1 29 Aug 00:07:04 00:10:59 35° 97° (E) 00:14:55 145.935-145.965
AUBIESAT-1 29 Aug 00:07:22 00:11:21 74° 106° (ESE) 00:14:59 437.475
M-CUBED/EXP-1 PRIME 29 Aug 00:09:14 00:13:18 85° 291° (WNW) 00:17:00 437.505
ESTCUBE 1 29 Aug 00:20:25 00:24:49 55° 260° (W) 00:29:14 437.505/2401.250
50 SAT 29 Aug 00:28:56 00:32:05 22° 265° (W) 00:35:10 437.505
DX 1 29 Aug 00:40:44 00:43:06 14° 268° (W) 00:45:16 434.975-435.025
AISAT 29 Aug 00:47:57 00:51:08 19° 267° (W) 00:54:10 437.250
TISAT 1 29 Aug 00:48:54 00:52:46 38° 73° (ENE) 00:56:43 437.305
RS-15 29 Aug 00:49:26 00:59:06 29° 38° (NE) 01:09:23 29.354- 29.394
UNISAT 6 29 Aug 00:54:18 00:57:58 23° 290° (WNW) 01:01:28 437.425
CUBEBUG 1 29 Aug 00:58:47 01:02:18 24° 265° (W) 01:05:46 437.445
POLYITAN 1 29 Aug 01:06:38 01:10:44 42° 286° (WNW) 01:14:47 437.675
SPROUT 29 Aug 01:06:39 01:10:55 69° 259° (W) 01:15:12 437.525
ITUPSAT 1 29 Aug 01:07:13 01:07:49 10° 65° (ENE) 01:08:44 437.325
POPSAT HIP 1 29 Aug 01:10:41 01:14:43 39° 287° (WNW) 01:18:42 437.405
DUCHIFAT 1 29 Aug 01:14:19 01:18:17 37° 287° (WNW) 01:22:12 145.980
TIGRISAT 29 Aug 01:26:01 01:27:45 12° 294° (WNW) 01:29:15 435.000
QB50P2 29 Aug 01:27:09 01:30:43 25° 289° (WNW) 01:34:10 145.880/145.840
Cosmos 2504 29 Aug 01:30:37 01:38:07 42° 285° (WNW) 01:45:59 435.465 / 435.565
NANOSAT C BR1 29 Aug 01:30:59 01:34:28 24° 289° (WNW) 01:37:51 145.865
BEESAT 3 29 Aug 01:33:21 01:37:21 60° 59° (ENE) 01:41:15 437.485
BUGSAT 1 29 Aug 01:37:07 01:40:56 32° 288° (WNW) 01:44:43 437.445
BEESAT 29 Aug 01:39:14 01:43:01 24° 69° (ENE) 01:46:53 436.000
BEESAT 2 29 Aug 01:40:20 01:44:18 52° 58° (ENE) 01:48:12 435.950
QB50P1 29 Aug 01:43:42 01:46:36 17° 291° (WNW) 01:49:20 145.935-145.965
CUSAT 1 29 Aug 01:46:36 01:49:48 36° 287° (WNW) 01:53:55 437.405
DANDE 29 Aug 01:50:04 01:53:02 59° 281° (W) 01:56:52 436.750
AIST 2 29 Aug 01:54:19 01:56:52 16° 48° (NE) 01:59:32 435.215
SWISSCUBE 29 Aug 02:03:46 02:08:20 48° 73° (ENE) 02:12:57 437.505
TISAT 1 29 Aug 02:26:22 02:28:44 14° 268° (W) 02:30:56 437.305
SO-50 29 Aug 02:37:07 02:41:51 81° 300° (WNW) 02:46:47 436.795
Oscar 19 29 Aug 02:38:08 02:43:15 58° 100° (E) 02:48:22 437.125/150
ITUPSAT 1 29 Aug 02:40:23 02:45:09 76° 257° (WSW) 02:49:58 437.325
GONETS M04 29 Aug 02:40:23 02:46:46 25° 84° (E) 02:53:32
Gurwin Techsat 1B 29 Aug 02:53:05 02:57:12 23° 94° (E) 03:01:26 435.225
RS-15 29 Aug 03:01:20 03:13:20 87° 241° (WSW) 03:25:38 29.354- 29.394
PCSat 29 Aug 03:06:55 03:12:19 79° 114° (ESE) 03:17:45 145.827
JAS-2 29 Aug 03:10:52 03:15:18 19° 87° (E) 03:19:44 435.910
BEESAT 29 Aug 03:16:31 03:20:44 30° 264° (W) 03:24:53 436.000
BEESAT 2 29 Aug 03:21:00 03:21:55 10° 251° (WSW) 03:22:35 435.950
ITAMSAT 1 29 Aug 03:29:46 03:34:40 43° 99° (E) 03:39:36 435.822/435.867
AIST 2 29 Aug 03:31:44 03:35:42 44° 245° (WSW) 03:39:36 435.215
STARS 29 Aug 03:33:11 03:37:10 35° 72° (ENE) 03:41:13 437.465
KKS-1 29 Aug 03:42:59 03:47:25 82° 79° (ENE) 03:51:55 437.445
SWISSCUBE 29 Aug 03:43:45 03:46:31 15° 269° (W) 03:49:02 437.505
Cosmos 2499 29 Aug 03:52:52 03:57:35 17° 81° (E) 04:02:59 435.465 / 435.565
Oscar 19 29 Aug 04:19:03 04:22:11 16° 294° (WNW) 04:25:04 437.125/150
SO-50 29 Aug 04:21:38 04:23:17 11° 320° (NW) 04:24:43 436.795
AO-7 29 Aug 04:28:52 04:35:56 32° 96° (E) 04:43:09 29.400- 29.500
Gurwin Techsat 1B 29 Aug 04:32:25 04:37:18 37° 289° (WNW) 04:42:07 435.225
GONETS M04 29 Aug 04:34:30 04:43:03 61° 281° (W) 04:51:39
HORYU 2 29 Aug 04:48:30 04:52:27 31° 97° (E) 04:56:26 437.375
PCSat 29 Aug 04:53:20 04:56:27 15° 314° (NW) 04:59:20 145.827
JAS-2 29 Aug 04:54:08 05:01:10 64° 287° (WNW) 05:07:19 435.910
VERMONT LUNAR 29 Aug 04:55:51 04:58:36 35° 151° (SSE) 05:01:22 437.305
MOZHAYETS 4 29 Aug 05:08:21 05:12:59 89° 257° (WSW) 05:17:38
ITAMSAT 1 29 Aug 05:10:06 05:13:54 20° 293° (WNW) 05:17:33 435.822/435.867
STARS 29 Aug 05:10:44 05:13:45 17° 267° (W) 05:16:37 437.465
RS-15 29 Aug 05:16:31 05:24:38 20° 257° (WSW) 05:31:56 29.354- 29.394
Cosmos 2499 29 Aug 05:41:26 05:49:43 83° 277° (W) 05:58:34 435.465 / 435.565
O/OREOS (USA 219) 29 Aug 06:14:59 06:19:33 61° 68° (ENE) 06:24:05 437.305
PHONESAT 2.4 29 Aug 06:15:59 06:17:57 15° 144° (SE) 06:20:00 2401.200-2431.200
AO-7 29 Aug 06:21:03 06:29:00 51° 293° (WNW) 06:36:52 29.400- 29.500
HORYU 2 29 Aug 06:25:33 06:28:55 21° 291° (WNW) 06:32:08 437.375
Cubesat XI-IV 29 Aug 06:26:02 06:28:03 12° 89° (E) 06:30:26 437.490
VERMONT LUNAR 29 Aug 06:32:08 06:35:02 45° 346° (NNW) 06:37:55 437.305
CUBESAT XI-V 29 Aug 06:53:23 06:58:00 81° 258° (WSW) 07:02:37 437.345
STRAND 1 29 Aug 07:05:14 07:09:49 35° 71° (ENE) 07:14:28 437.568
PRISM 29 Aug 07:06:16 07:09:20 21° 70° (ENE) 07:12:30 437.425
CUTE-I 29 Aug 07:09:44 07:14:35 36° 97° (E) 07:19:29 437.470
Cosmos 2499 29 Aug 07:39:49 07:44:34 15° 299° (WNW) 07:48:49 435.465 / 435.565
PHONESAT 2.4 29 Aug 07:52:07 07:55:30 82° 160° (SSE) 07:58:55 2401.200-2431.200
O/OREOS (USA 219) 29 Aug 07:57:41 07:58:30 10° 261° (W) 07:58:59 437.305
Cubesat XI-IV 29 Aug 08:03:26 08:08:44 67° 285° (WNW) 08:14:00 437.490
YUBILEINY 29 Aug 08:06:10 08:12:47 24° 68° (ENE) 08:19:42 435.215
GOMX 1 29 Aug 08:07:51 08:10:43 15° 89° (E) 08:13:53 467.674
VERMONT LUNAR 29 Aug 08:09:08 08:11:50 30° 2° (N) 08:14:31 437.305
